Find Starlink 33939

NORAD ID: 63702 Int'l Des: 2025-087 Owner: SPXS Country: US Constellation: starlink operational
LEOCIRCULAR

リアルタイム位置

3D地球を読み込み中...

Starlink 33939について

説明を読み込み中...

次回通過

Passes for default location (London). Set your location on the main map for personalized predictions.

高度履歴

Loading altitude history...

軌道要素

1 63702U 25087F 26123.84662095 .00015163 00000-0 49936-3 0 9994
2 63702 53.1590 323.4150 0000910 110.7380 249.3718 15.31702266 57640
Epoch: May 3, 2026 • Age: 15 hours

現在のステータス

高度 484.0 km
速度 7.62 km/s
衛星直下点 -39.55°S, 144.74°E
打ち上げ日 Apr 28, 2025
運用期間 1 years
タイプ internet

技術仕様

分類 Payload
質量 575.00 kg
乾燥質量 530.00 kg
総質量 575.00 kg
長さ 0.30 m
直径 4.10 m
スパン 29.00 m
形状 Box + pan
製造者 SPXS
バスタイプ Starlink V2MO
フェーズステータス In Orbit
所有者/国 SPXS/US

Most Searched